WXM80 ListenWXM80 Stop

You find our weather info also at:

UK Metoffice

WeatherCloud

Weather Underground

Northeastern Weather Network

AWEKAS

Citizen Weather Observer Program (CWOP)

HAMweather, WeatherForYou, PWS Weather


Weather Underground History page Text

Daily Summary for February 20, 2017 Units:  Metric    English   Both
« Previous Day
Next Day »
Daily Weekly Monthly Yearly Custom
  High: Low: Average:
Temperature: 12.2 °C 2.2 °C 6.6 °C
Dew Point: 3.2 °C -4.3 °C -0.4 °C
Humidity: 85 % 40 % 62 %
Wind Speed: 15.8 km/h 0 km/h 5.1 km/h
Wind Gust: 25.9 km/h - -
Wind:- - SSW
Pressure: 1027 hPa 1013.8 hPa -
Precipitation: 0 mm    
Historical Graphs
 
 
Tabular Data for February 20, 2017
Time Temperature Dew Point Pressure Wind Wind Speed Wind Gust Humidity Rainfall Rate (Hourly)
00:00 7.3 °C 1.2 °C 1013.8 hPa Calm   3.7 km/h 65 % 0 mm
00:05 7.2 °C 1.1 °C 1013.8 hPa Calm     65 % 0 mm
00:10 7.1 °C 1.1 °C 1013.8 hPa WNW 0.5 km/h 3.2 km/h 66 % 0 mm
00:15 6.8 °C 0.9 °C 1014.1 hPa Calm   1.9 km/h 66 % 0 mm
00:20 6.7 °C 0.8 °C 1014.1 hPa Calm   1.9 km/h 66 % 0 mm
00:25 6.5 °C 0.8 °C 1014.1 hPa Calm     67 % 0 mm
00:31 6.3 °C 0.8 °C 1014.1 hPa WNW 1.4 km/h 3.7 km/h 68 % 0 mm
00:36 6.2 °C 0.9 °C 1014.4 hPa WNW 0.5 km/h 1.9 km/h 69 % 0 mm
00:41 6.1 °C 0.8 °C 1014.4 hPa WNW 3.7 km/h 5.6 km/h 69 % 0 mm
00:46 6 °C 0.9 °C 1014.4 hPa NW 0.6 km/h 5.6 km/h 70 % 0 mm
00:51 5.9 °C 0.9 °C 1014.4 hPa WNW 0.5 km/h 3.7 km/h 70 % 0 mm
00:56 5.9 °C 1.1 °C 1014.4 hPa Calm     71 % 0 mm
01:01 5.8 °C 0.8 °C 1014.4 hPa Calm     70 % 0 mm
01:06 5.7 °C 0.6 °C 1014.4 hPa Calm   1.9 km/h 70 % 0 mm
01:11 5.5 °C 0.8 °C 1014.4 hPa Calm   1.9 km/h 72 % 0 mm
01:16 5.4 °C 0.7 °C 1014.4 hPa Calm     72 % 0 mm
01:21 5.3 °C 0.8 °C 1014.4 hPa Calm     73 % 0 mm
01:26 5.1 °C 0.8 °C 1014.4 hPa WNW 0.2 km/h 1.6 km/h 74 % 0 mm
01:31 4.9 °C 0.8 °C 1014.8 hPa WNW 1.8 km/h 3.7 km/h 75 % 0 mm
01:36 4.8 °C 0.8 °C 1014.4 hPa WNW 1 km/h 1.9 km/h 75 % 0 mm
01:41 4.8 °C 0.8 °C 1014.8 hPa WNW 0.2 km/h 1.9 km/h 75 % 0 mm
01:46 4.8 °C 0.7 °C 1014.8 hPa Calm   3.7 km/h 75 % 0 mm
01:51 4.7 °C 0.8 °C 1014.8 hPa Calm     76 % 0 mm
01:56 4.7 °C 0.8 °C 1014.8 hPa Calm     76 % 0 mm
02:01 4.6 °C 0.9 °C 1014.8 hPa Calm     77 % 0 mm
02:06 4.6 °C 0.9 °C 1014.8 hPa Calm     77 % 0 mm
02:11 4.6 °C 0.7 °C 1014.8 hPa Calm     76 % 0 mm
02:16 4.4 °C 0.5 °C 1014.8 hPa Calm     76 % 0 mm
02:21 4.3 °C 0.8 °C 1014.8 hPa Calm     78 % 0 mm
02:26 4.2 °C 0.8 °C 1014.8 hPa Calm     79 % 0 mm
02:31 4.2 °C 0.8 °C 1014.8 hPa WNW 2.7 km/h 5.6 km/h 79 % 0 mm
02:37 4.2 °C 1 °C 1014.8 hPa Calm     80 % 0 mm
02:42 4.2 °C 0.9 °C 1014.8 hPa WNW 0.3 km/h 1.9 km/h 79 % 0 mm
02:47 4.3 °C 0.9 °C 1014.8 hPa NW 0.3 km/h 5.6 km/h 79 % 0 mm
02:52 4.3 °C 0.9 °C 1014.8 hPa NW 0.2 km/h   79 % 0 mm
02:57 4.2 °C 0.5 °C 1015.1 hPa Calm   1.9 km/h 77 % 0 mm
03:02 4.1 °C 0.6 °C 1015.1 hPa NW 1 km/h 3.2 km/h 78 % 0 mm
03:07 4.1 °C 0.8 °C 1015.1 hPa NW 1.3 km/h 3.2 km/h 79 % 0 mm
03:12 4.1 °C 0.9 °C 1015.1 hPa NW 2.9 km/h 3.7 km/h 80 % 0 mm
03:17 4.1 °C 1.2 °C 1015.5 hPa West 6.1 km/h 8 km/h 81 % 0 mm
03:22 4.2 °C 1.2 °C 1015.5 hPa West 1.8 km/h 3.7 km/h 81 % 0 mm
03:27 4.3 °C 1.3 °C 1015.5 hPa WNW 1.6 km/h 5.6 km/h 81 % 0 mm
03:32 4.4 °C 1.4 °C 1015.5 hPa WNW 3.7 km/h 7.4 km/h 81 % 0 mm
03:37 4.5 °C 1.5 °C 1015.5 hPa NW 2.1 km/h 5.6 km/h 81 % 0 mm
03:42 4.7 °C 1.5 °C 1015.8 hPa WNW 3.4 km/h 7.4 km/h 80 % 0 mm
03:47 4.8 °C 1.5 °C 1015.8 hPa West 6.1 km/h 9.3 km/h 79 % 0 mm
03:52 5 °C 1.7 °C 1015.8 hPa WNW 3.9 km/h 9.3 km/h 79 % 0 mm
03:57 5.2 °C 1.7 °C 1015.8 hPa WNW 3.4 km/h 3.7 km/h 78 % 0 mm
04:02 5.3 °C 1.6 °C 1015.8 hPa WNW 2.7 km/h 5.6 km/h 77 % 0 mm
04:07 5.5 °C 1.6 °C 1015.8 hPa WNW 3.2 km/h 6.4 km/h 76 % 0 mm
04:12 5.6 °C 1.7 °C 1016.1 hPa Calm   3.7 km/h 76 % 0 mm
04:17 5.7 °C 1.6 °C 1016.1 hPa WNW 1.3 km/h 3.7 km/h 75 % 0 mm
04:22 5.7 °C 1.6 °C 1016.1 hPa WNW 1.1 km/h 3.7 km/h 75 % 0 mm
04:27 5.8 °C 1.5 °C 1016.1 hPa Calm     74 % 0 mm
04:32 5.8 °C 1.6 °C 1016.5 hPa Calm     74 % 0 mm
04:38 5.8 °C 1.6 °C 1016.5 hPa Calm   1.6 km/h 74 % 0 mm
04:43 5.8 °C 1.5 °C 1016.5 hPa WNW 1 km/h 5.6 km/h 74 % 0 mm
04:48 5.7 °C 1.4 °C 1016.8 hPa WNW 0.2 km/h 1.9 km/h 74 % 0 mm
04:53 5.6 °C 1.3 °C 1016.5 hPa Calm     74 % 0 mm
04:58 5.4 °C 1.4 °C 1016.8 hPa West 3.9 km/h 5.6 km/h 75 % 0 mm
05:03 5.3 °C 1.2 °C 1016.8 hPa West 2.9 km/h 5.6 km/h 75 % 0 mm
05:08 5.2 °C 1.3 °C 1016.8 hPa West 1.8 km/h 3.7 km/h 76 % 0 mm
05:13 5.1 °C 1.2 °C 1017.2 hPa WNW 1.3 km/h 5.6 km/h 76 % 0 mm
05:18 5.1 °C 1.3 °C 1017.2 hPa WNW 1.1 km/h 5.6 km/h 77 % 0 mm
05:23 5.1 °C 1.3 °C 1017.2 hPa Calm   3.7 km/h 77 % 0 mm
05:28 4.9 °C 1.1 °C 1017.2 hPa WNW 0.6 km/h 1.9 km/h 76 % 0 mm
05:33 4.8 °C 0.9 °C 1017.5 hPa Calm     76 % 0 mm
05:38 4.7 °C 0.8 °C 1017.5 hPa Calm   1.9 km/h 76 % 0 mm
05:43 4.3 °C -0.1 °C 1017.5 hPa Calm     73 % 0 mm
05:48 4.1 °C -0.2 °C 1017.5 hPa Calm   1.6 km/h 74 % 0 mm
05:53 3.6 °C -0.1 °C 1017.8 hPa NW 1.6 km/h 4.8 km/h 77 % 0 mm
05:58 3.4 °C 0.3 °C 1017.8 hPa West 2.9 km/h 5.6 km/h 80 % 0 mm
06:03 3.3 °C 0.3 °C 1017.8 hPa West 0.3 km/h 3.7 km/h 81 % 0 mm
06:08 3.2 °C 0.4 °C 1018.2 hPa West 1.3 km/h 3.7 km/h 82 % 0 mm
06:13 3.2 °C 0.4 °C 1018.2 hPa West 2.4 km/h 3.7 km/h 82 % 0 mm
06:18 3.2 °C 0.6 °C 1018.2 hPa West 2.3 km/h 3.7 km/h 83 % 0 mm
06:23 3.1 °C 0.7 °C 1018.2 hPa West 2.1 km/h 5.6 km/h 84 % 0 mm
06:28 3.1 °C 0.7 °C 1018.5 hPa Calm   1.9 km/h 84 % 0 mm
06:33 3.1 °C 0.6 °C 1018.5 hPa West 2.6 km/h 5.6 km/h 84 % 0 mm
06:38 3.1 °C 0.6 °C 1018.8 hPa West 3.4 km/h 5.6 km/h 84 % 0 mm
06:44 3.1 °C 0.8 °C 1018.8 hPa West 1 km/h 1.9 km/h 85 % 0 mm
06:49 3 °C 0.6 °C 1018.8 hPa West 2.9 km/h 5.6 km/h 84 % 0 mm
06:54 3 °C 0.7 °C 1018.8 hPa WSW 3.7 km/h 5.6 km/h 85 % 0 mm
06:59 3.1 °C 0.8 °C 1019.2 hPa WSW 2.1 km/h 5.6 km/h 85 % 0 mm
07:04 3.1 °C 0.8 °C 1019.2 hPa WSW 2.6 km/h 5.6 km/h 85 % 0 mm
07:09 3.2 °C 0.9 °C 1019.2 hPa SW 1.8 km/h 7.4 km/h 85 % 0 mm
07:14 3.3 °C 1.1 °C 1019.2 hPa SW 1.9 km/h 5.6 km/h 85 % 0 mm
07:19 3.5 °C 1.2 °C 1019.2 hPa SW 2.6 km/h 5.6 km/h 85 % 0 mm
07:24 3.7 °C 1.4 °C 1019.2 hPa WNW 1.8 km/h 3.7 km/h 85 % 0 mm
07:29 3.9 °C 1.4 °C 1019.2 hPa West 1.4 km/h 3.7 km/h 84 % 0 mm
07:34 4.1 °C 1.6 °C 1019.2 hPa NW 2.1 km/h 5.6 km/h 84 % 0 mm
07:39 4.3 °C 1.7 °C 1019.5 hPa WNW 0.8 km/h 4.8 km/h 83 % 0 mm
07:44 4.4 °C 1.6 °C 1019.5 hPa WNW 1.1 km/h 5.6 km/h 82 % 0 mm
07:49 4.7 °C 1.7 °C 1019.5 hPa WNW 3.9 km/h 8 km/h 81 % 0 mm
07:54 4.8 °C 1.7 °C 1019.5 hPa WNW 4.8 km/h 6.4 km/h 80 % 0 mm
07:59 5.1 °C 1.7 °C 1019.5 hPa WNW 4.3 km/h 11.1 km/h 79 % 0 mm
08:04 5.2 °C 1.9 °C 1019.5 hPa West 3.2 km/h 5.6 km/h 79 % 0 mm
08:09 5.4 °C 1.9 °C 1019.9 hPa WSW 1.1 km/h 3.2 km/h 78 % 0 mm
08:14 5.7 °C 2.1 °C 1019.9 hPa WNW 2.7 km/h 7.4 km/h 78 % 0 mm
08:20 5.9 °C 2.1 °C 1019.9 hPa WSW 4.7 km/h 5.6 km/h 76 % 0 mm
08:24 6.2 °C 2.1 °C 1019.9 hPa WNW 2.4 km/h 5.6 km/h 75 % 0 mm
08:30 6.3 °C 2.2 °C 1019.9 hPa WNW 5.6 km/h 9.3 km/h 75 % 0 mm
08:35 6.6 °C 2.1 °C 1019.9 hPa WNW 7.4 km/h 11.1 km/h 73 % 0 mm
08:40 6.7 °C 2.2 °C 1020.2 hPa NW 4.5 km/h 7.4 km/h 73 % 0 mm
08:45 6.9 °C 2.2 °C 1020.2 hPa NNW 4 km/h 7.4 km/h 72 % 0 mm
08:50 7.1 °C 2.3 °C 1020.2 hPa WNW 2.4 km/h 5.6 km/h 72 % 0 mm
08:55 7.2 °C 2.5 °C 1020.2 hPa WNW 3.5 km/h 7.4 km/h 72 % 0 mm
09:00 7.3 °C 2.4 °C 1020.5 hPa NNW 3.4 km/h 7.4 km/h 71 % 0 mm
09:05 7.6 °C 2.6 °C 1020.5 hPa WNW 3.9 km/h 9.7 km/h 71 % 0 mm
09:10 7.7 °C 2.6 °C 1020.2 hPa WNW 5 km/h 7.4 km/h 70 % 0 mm
09:15 7.8 °C 2.7 °C 1020.5 hPa WNW 1.6 km/h 7.4 km/h 70 % 0 mm
09:20 8.1 °C 2.5 °C 1020.2 hPa WNW 4 km/h 11.3 km/h 68 % 0 mm
09:25 8.2 °C 2.6 °C 1020.5 hPa WNW 5.1 km/h 11.1 km/h 68 % 0 mm
09:30 8.3 °C 2.5 °C 1020.2 hPa WNW 6.1 km/h 11.1 km/h 67 % 0 mm
09:35 8.4 °C 2.9 °C 1020.5 hPa NW 1.6 km/h 5.6 km/h 68 % 0 mm
09:40 8.7 °C 2.9 °C 1020.5 hPa West 6.6 km/h 12.9 km/h 67 % 0 mm
09:45 8.8 °C 3 °C 1020.5 hPa WNW 6.4 km/h 11.1 km/h 67 % 0 mm
09:47 8.8 °C 3.1 °C 1020.5 hPa NW 3.2 km/h 9.3 km/h 67 % 0 mm
09:52 9.1 °C 3.1 °C 1020.9 hPa NNW 4.2 km/h 11.1 km/h 66 % 0 mm
09:57 9.2 °C 3.2 °C 1020.9 hPa NW 5.6 km/h 8 km/h 66 % 0 mm
10:02 9.3 °C 2.9 °C 1020.9 hPa WNW 7.6 km/h 9.7 km/h 64 % 0 mm
10:07 9.4 °C 2.9 °C 1020.9 hPa NW 5.3 km/h 7.4 km/h 64 % 0 mm
10:12 9.6 °C 3.1 °C 1020.9 hPa NNW 4.3 km/h 11.1 km/h 64 % 0 mm
10:17 9.6 °C 2.7 °C 1020.9 hPa NNW 6.9 km/h 13 km/h 62 % 0 mm
10:22 9.7 °C 3 °C 1020.9 hPa NNW 6.6 km/h 9.3 km/h 63 % 0 mm
10:27 9.9 °C 2.9 °C 1020.9 hPa NW 6.1 km/h 11.1 km/h 62 % 0 mm
10:32 9.9 °C 3.2 °C 1020.9 hPa NNW 6.4 km/h 13 km/h 63 % 0 mm
10:37 9.9 °C 2.8 °C 1020.9 hPa NNW 5.5 km/h 9.7 km/h 61 % 0 mm
10:43 10.1 °C 2.6 °C 1020.9 hPa NW 5.1 km/h 9.3 km/h 60 % 0 mm
10:48 10.2 °C 2.7 °C 1021.2 hPa NW 6.8 km/h 9.3 km/h 60 % 0 mm
10:53 10.3 °C 2.8 °C 1021.2 hPa NNW 6 km/h 11.3 km/h 60 % 0 mm
10:58 10.3 °C 2.2 °C 1021.2 hPa NNW 8.2 km/h 13 km/h 57 % 0 mm
11:03 10.4 °C 2.5 °C 1020.9 hPa NW 7.4 km/h 13 km/h 58 % 0 mm
11:08 10.6 °C 1.9 °C 1020.9 hPa WNW 8 km/h 14.8 km/h 55 % 0 mm
11:13 10.7 °C 2.5 °C 1021.2 hPa NW 3.4 km/h 7.4 km/h 57 % 0 mm
11:18 11.1 °C 2.6 °C 1021.2 hPa NNW 3.1 km/h 9.7 km/h 56 % 0 mm
11:23 11.2 °C 1.7 °C 1020.9 hPa NNW 8.4 km/h 11.1 km/h 52 % 0 mm
11:28 11.1 °C 1 °C 1021.2 hPa NNW 8.9 km/h 11.1 km/h 50 % 0 mm
11:33 11.1 °C 1.3 °C 1021.2 hPa NW 10 km/h 13 km/h 51 % 0 mm
11:38 11.1 °C 1.6 °C 1020.9 hPa NW 5.8 km/h 14.8 km/h 52 % 0 mm
11:43 11.1 °C 1.8 °C 1020.9 hPa NW 3.2 km/h 14.5 km/h 53 % 0 mm
11:48 11.1 °C 0.8 °C 1020.9 hPa NW 4.8 km/h 11.3 km/h 49 % 0 mm
11:53 11.2 °C 1.2 °C 1021.2 hPa NW 9.7 km/h 19.3 km/h 50 % 0 mm
11:58 11.3 °C 1.5 °C 1020.9 hPa NNW 3.5 km/h 5.6 km/h 51 % 0 mm
12:03 11.3 °C 1.6 °C 1020.9 hPa NW 8 km/h 14.5 km/h 51 % 0 mm
12:08 11.4 °C 1.3 °C 1020.5 hPa NNW 8 km/h 12.9 km/h 50 % 0 mm
12:13 11.5 °C 1.4 °C 1020.5 hPa NW 5.3 km/h 14.8 km/h 50 % 0 mm
12:18 11.6 °C 0.9 °C 1020.5 hPa NW 9.7 km/h 14.5 km/h 48 % 0 mm
12:23 11.6 °C 0.7 °C 1020.5 hPa NW 8 km/h 11.3 km/h 47 % 0 mm
12:28 11.7 °C 1.3 °C 1020.5 hPa NW 3.2 km/h 8 km/h 49 % 0 mm
12:33 11.9 °C 0.9 °C 1020.5 hPa NW 8 km/h 14.5 km/h 47 % 0 mm
12:38 12 °C 0.7 °C 1020.5 hPa NNW 8 km/h 14.5 km/h 46 % 0 mm
12:43 12.1 °C 1.7 °C 1020.5 hPa NNW 3.2 km/h 11.3 km/h 49 % 0 mm
12:48 12.2 °C 2.1 °C 1020.5 hPa NW 4.3 km/h 8 km/h 50 % 0 mm
12:50 12.2 °C 1.5 °C 1020.5 hPa NNW 4.8 km/h 8 km/h 48 % 0 mm
12:55 12.1 °C 1.4 °C 1020.5 hPa NNW 6.1 km/h 8 km/h 48 % 0 mm
12:56 12.1 °C 1.4 °C 1020.5 hPa NW 2.4 km/h 5.6 km/h 48 % 0 mm
13:01 11.9 °C 0.1 °C 1020.5 hPa NNW 9.2 km/h 16.7 km/h 44 % 0 mm
13:07 11.8 °C 0.6 °C 1020.5 hPa NW 4.3 km/h 9.7 km/h 46 % 0 mm
13:12 11.8 °C 1.4 °C 1020.2 hPa NW 7.4 km/h 9.3 km/h 49 % 0 mm
13:17 11.8 °C 1.4 °C 1020.5 hPa NE 3.2 km/h 8 km/h 49 % 0 mm
13:22 11.9 °C 0.9 °C 1020.5 hPa North 2.9 km/h 7.4 km/h 47 % 0 mm
13:27 12.2 °C 0.9 °C 1020.2 hPa North 3.9 km/h 5.6 km/h 46 % 0 mm
13:32 12.2 °C -0.7 °C 1020.2 hPa North 5.3 km/h 7.4 km/h 41 % 0 mm
13:37 12.2 °C 0 °C 1020.2 hPa North 5.1 km/h 9.7 km/h 43 % 0 mm
13:42 12.2 °C 0 °C 1020.2 hPa North 5.6 km/h 7.4 km/h 43 % 0 mm
13:47 12.2 °C -0.1 °C 1020.2 hPa NNW 1.1 km/h 5.6 km/h 43 % 0 mm
13:52 12.1 °C -0.5 °C 1020.2 hPa NNW 1.9 km/h 7.4 km/h 42 % 0 mm
13:57 12 °C -0.6 °C 1020.2 hPa NNE 6.6 km/h 8 km/h 42 % 0 mm
14:02 11.9 °C -0.6 °C 1020.2 hPa NE 7.4 km/h 11.1 km/h 42 % 0 mm
14:07 11.8 °C -0.7 °C 1020.2 hPa NNE 10.5 km/h 18.5 km/h 42 % 0 mm
14:12 11.6 °C -1.3 °C 1020.2 hPa North 7.9 km/h 14.8 km/h 41 % 0 mm
14:17 11.4 °C -1.1 °C 1020.5 hPa North 9.8 km/h 18.5 km/h 42 % 0 mm
14:22 11.2 °C -1.2 °C 1020.2 hPa North 7.2 km/h 11.3 km/h 42 % 0 mm
14:27 11 °C -1.1 °C 1020.2 hPa NNE 8.4 km/h 18.5 km/h 43 % 0 mm
14:32 10.9 °C -1.8 °C 1020.2 hPa NNE 9.8 km/h 18.5 km/h 41 % 0 mm
14:37 10.8 °C -2.3 °C 1020.2 hPa NNW 9.8 km/h 18.5 km/h 40 % 0 mm
14:42 10.7 °C -1.4 °C 1020.2 hPa NNW 5.1 km/h 13 km/h 43 % 0 mm
14:43 10.7 °C -1.4 °C 1020.2 hPa North 4.8 km/h 12.9 km/h 43 % 0 mm
14:48 10.6 °C -1.8 °C 1020.2 hPa North 9.7 km/h 14.5 km/h 42 % 0 mm
14:53 10.5 °C -2.2 °C 1020.2 hPa North 9.7 km/h 19.3 km/h 41 % 0 mm
14:58 10.3 °C -2.1 °C 1020.2 hPa NNE 10.5 km/h 16.7 km/h 42 % 0 mm
15:03 10.2 °C -2.5 °C 1020.5 hPa NNE 12.7 km/h 19.3 km/h 41 % 0 mm
15:08 10 °C -3 °C 1020.5 hPa North 7.9 km/h 18.5 km/h 40 % 0 mm
15:13 9.9 °C -2.4 °C 1020.5 hPa NNE 10 km/h 18.5 km/h 42 % 0 mm
15:18 9.7 °C -2.3 °C 1020.5 hPa NNE 11.4 km/h 18.5 km/h 43 % 0 mm
15:23 9.5 °C -2.5 °C 1020.5 hPa NNW 8.9 km/h 14.8 km/h 43 % 0 mm
15:28 9.4 °C -1.9 °C 1020.9 hPa NNW 8.9 km/h 13 km/h 45 % 0 mm
15:33 9.2 °C -2.4 °C 1020.9 hPa NNE 12.4 km/h 20.4 km/h 44 % 0 mm
15:38 9.1 °C -3.5 °C 1020.9 hPa North 11.3 km/h 17.7 km/h 41 % 0 mm
15:43 9 °C -3.2 °C 1020.9 hPa NNE 10.3 km/h 20.4 km/h 42 % 0 mm
15:49 8.9 °C -2.1 °C 1021.2 hPa North 10.8 km/h 14.8 km/h 46 % 0 mm
15:54 8.8 °C -2.2 °C 1021.2 hPa North 11.6 km/h 14.8 km/h 46 % 0 mm
15:59 8.6 °C -2.7 °C 1021.2 hPa NNE 11.1 km/h 14.8 km/h 45 % 0 mm
16:04 8.5 °C -2.8 °C 1021.6 hPa NNW 10.8 km/h 16.7 km/h 45 % 0 mm
16:09 8.3 °C -2.9 °C 1021.9 hPa NE 12.1 km/h 17.7 km/h 45 % 0 mm
16:14 8.3 °C -3 °C 1021.6 hPa NE 10.3 km/h 16.7 km/h 45 % 0 mm
16:19 8.2 °C -2.2 °C 1021.6 hPa NNE 6.8 km/h 11.3 km/h 48 % 0 mm
16:24 8.1 °C -1.7 °C 1021.9 hPa NNE 6.1 km/h 9.3 km/h 50 % 0 mm
16:29 7.9 °C -1.8 °C 1021.9 hPa North 9 km/h 13 km/h 50 % 0 mm
16:34 7.8 °C -3.1 °C 1022.2 hPa NE 12.1 km/h 18.5 km/h 46 % 0 mm
16:39 7.7 °C -3.5 °C 1022.2 hPa NE 10.9 km/h 18.5 km/h 45 % 0 mm
16:44 7.6 °C -3 °C 1022.6 hPa NNE 13.7 km/h 16.7 km/h 47 % 0 mm
16:49 7.4 °C -2.9 °C 1022.2 hPa NNE 12.1 km/h 13 km/h 48 % 0 mm
16:54 7.3 °C -2.4 °C 1022.6 hPa NNE 10.5 km/h 18.5 km/h 50 % 0 mm
16:59 7.2 °C -2.8 °C 1022.6 hPa North 11.9 km/h 16.7 km/h 49 % 0 mm
17:04 7 °C -3 °C 1022.6 hPa NNE 9.8 km/h 14.8 km/h 49 % 0 mm
17:09 6.9 °C -3.4 °C 1022.9 hPa NE 13.5 km/h 20.4 km/h 48 % 0 mm
17:14 6.8 °C -3.8 °C 1022.9 hPa NNE 11.3 km/h 14.8 km/h 47 % 0 mm
17:19 6.7 °C -3.3 °C 1022.9 hPa NNE 12.6 km/h 16.7 km/h 49 % 0 mm
17:24 6.6 °C -2.6 °C 1023.2 hPa NNE 7.6 km/h 13 km/h 52 % 0 mm
17:29 6.4 °C -2.7 °C 1023.2 hPa North 10.9 km/h 14.8 km/h 52 % 0 mm
17:34 6.3 °C -2.8 °C 1023.2 hPa NNE 8.9 km/h 14.5 km/h 52 % 0 mm
17:39 6.2 °C -3.2 °C 1023.2 hPa North 10.1 km/h 16.7 km/h 51 % 0 mm
17:44 6.2 °C -4.3 °C 1023.6 hPa NNE 15.8 km/h 25.9 km/h 47 % 0 mm
17:50 6.2 °C -3.7 °C 1023.6 hPa NNE 9.8 km/h 14.8 km/h 49 % 0 mm
17:55 6.1 °C -2.5 °C 1023.9 hPa North 7.4 km/h 16.7 km/h 54 % 0 mm
18:00 6 °C -2.4 °C 1023.9 hPa North 10 km/h 19.3 km/h 55 % 0 mm
18:05 5.9 °C -2.7 °C 1023.9 hPa NNE 9.8 km/h 22.5 km/h 54 % 0 mm
18:10 5.9 °C -3 °C 1024.3 hPa NNE 11.4 km/h 17.7 km/h 53 % 0 mm
18:15 5.8 °C -2.5 °C 1024.3 hPa North 10.3 km/h 14.8 km/h 55 % 0 mm
18:20 5.7 °C -1.7 °C 1024.3 hPa NNE 9.2 km/h 14.8 km/h 59 % 0 mm
18:25 5.6 °C -2.3 °C 1024.6 hPa NE 10 km/h 19.3 km/h 57 % 0 mm
18:30 5.5 °C -2.8 °C 1024.6 hPa NNE 11.6 km/h 18.5 km/h 55 % 0 mm
18:35 5.5 °C -3.3 °C 1024.6 hPa North 11.6 km/h 18.5 km/h 53 % 0 mm
18:40 5.5 °C -3.8 °C 1024.6 hPa North 13.7 km/h 22.2 km/h 51 % 0 mm
18:45 5.6 °C -3.8 °C 1024.6 hPa North 11.7 km/h 14.8 km/h 51 % 0 mm
18:50 5.6 °C -3.3 °C 1024.9 hPa NNE 6.6 km/h 13 km/h 53 % 0 mm
18:55 5.5 °C -3.3 °C 1024.9 hPa NW 5.5 km/h 7.4 km/h 53 % 0 mm
19:00 5.4 °C -3.1 °C 1025.3 hPa NW 7.9 km/h 11.3 km/h 54 % 0 mm
19:05 5.3 °C -2.7 °C 1025.3 hPa NNW 8.4 km/h 18.5 km/h 56 % 0 mm
19:10 5.3 °C -2.8 °C 1025.6 hPa North 5.8 km/h 9.7 km/h 56 % 0 mm
19:15 5.2 °C -3.3 °C 1025.6 hPa NNE 5.6 km/h 9.3 km/h 54 % 0 mm
19:20 5.2 °C -3.4 °C 1026 hPa NNE 6.6 km/h 13 km/h 54 % 0 mm
19:25 5.1 °C -3.2 °C 1026 hPa NNE 5.3 km/h 9.3 km/h 55 % 0 mm
19:30 5.1 °C -3.5 °C 1026 hPa NNE 9.3 km/h 18.5 km/h 54 % 0 mm
19:35 5.1 °C -3.7 °C 1026 hPa North 8.7 km/h 14.8 km/h 53 % 0 mm
19:40 5 °C -3.6 °C 1025.6 hPa NNW 7.2 km/h 11.3 km/h 54 % 0 mm
19:45 4.9 °C -3.3 °C 1026 hPa NE 8.5 km/h 11.1 km/h 55 % 0 mm
19:50 4.9 °C -3.3 °C 1026 hPa North 8.4 km/h 14.5 km/h 55 % 0 mm
19:56 4.9 °C -3.2 °C 1025.6 hPa North 6.6 km/h 11.1 km/h 56 % 0 mm
20:01 4.8 °C -3.2 °C 1026 hPa North 8.5 km/h 13 km/h 56 % 0 mm
20:06 4.8 °C -3.3 °C 1026 hPa NNE 8.7 km/h 13 km/h 56 % 0 mm
20:11 4.7 °C -2.9 °C 1026 hPa NNE 5.5 km/h 11.1 km/h 58 % 0 mm
20:16 4.6 °C -2.9 °C 1026 hPa NNE 5.3 km/h 8 km/h 58 % 0 mm
20:21 4.6 °C -3 °C 1026 hPa North 8.2 km/h 13 km/h 58 % 0 mm
20:26 4.5 °C -2.8 °C 1026 hPa North 5.3 km/h 8 km/h 59 % 0 mm
20:31 4.4 °C -2.9 °C 1026 hPa NNE 5.5 km/h 14.8 km/h 59 % 0 mm
20:36 4.3 °C -2.8 °C 1026 hPa North 5.1 km/h 9.7 km/h 60 % 0 mm
20:41 4.3 °C -3.4 °C 1026 hPa North 7.9 km/h 13 km/h 57 % 0 mm
20:46 4.3 °C -3.7 °C 1026 hPa NNE 9.5 km/h 14.8 km/h 56 % 0 mm
20:51 4.3 °C -3.7 °C 1026.3 hPa NE 7.4 km/h 14.8 km/h 56 % 0 mm
20:56 4.2 °C -3.6 °C 1026.3 hPa NE 10 km/h 13 km/h 57 % 0 mm
21:01 4.2 °C -3.8 °C 1026.3 hPa NE 10.8 km/h 18.5 km/h 56 % 0 mm
21:06 4.2 °C -3.8 °C 1026.3 hPa NE 10.9 km/h 13 km/h 56 % 0 mm
21:11 4.2 °C -3.6 °C 1026.6 hPa NE 10 km/h 14.8 km/h 57 % 0 mm
21:16 4.1 °C -3.7 °C 1026.6 hPa NE 8 km/h 14.5 km/h 57 % 0 mm
21:21 4.1 °C -3.5 °C 1026.6 hPa NNE 9.8 km/h 13 km/h 58 % 0 mm
21:26 3.9 °C -3.6 °C 1026.6 hPa NNE 9.7 km/h 13 km/h 58 % 0 mm
21:31 3.9 °C -3.4 °C 1026.3 hPa NNE 6.9 km/h 11.1 km/h 59 % 0 mm
21:36 3.8 °C -3.2 °C 1026.3 hPa NNE 7.1 km/h 9.3 km/h 60 % 0 mm
21:41 3.8 °C -3.3 °C 1026.3 hPa North 7.6 km/h 11.1 km/h 60 % 0 mm
21:46 3.7 °C -2.9 °C 1026.3 hPa NNE 7.2 km/h 13 km/h 62 % 0 mm
21:51 3.6 °C -3.3 °C 1026.3 hPa NE 7.1 km/h 13 km/h 61 % 0 mm
21:57 3.5 °C -3.3 °C 1026.3 hPa NNE 6.9 km/h 11.1 km/h 61 % 0 mm
22:02 3.4 °C -3.4 °C 1026.3 hPa NNE 11.1 km/h 16.7 km/h 61 % 0 mm
22:07 3.4 °C -3.7 °C 1026.3 hPa North 9.2 km/h 11.1 km/h 60 % 0 mm
22:12 3.4 °C -3.7 °C 1026.3 hPa NNE 5.5 km/h 8 km/h 60 % 0 mm
22:17 3.3 °C -3.5 °C 1026.3 hPa NE 6 km/h 9.3 km/h 61 % 0 mm
22:22 3.3 °C -3.6 °C 1026.6 hPa NNE 6.8 km/h 13 km/h 61 % 0 mm
22:27 3.2 °C -3.6 °C 1026.6 hPa NNE 7.4 km/h 11.1 km/h 61 % 0 mm
22:32 3.2 °C -3.6 °C 1026.6 hPa NNE 8 km/h 14.5 km/h 61 % 0 mm
22:37 3.2 °C -3.6 °C 1026.6 hPa NNE 5.6 km/h 6.4 km/h 61 % 0 mm
22:42 3.1 °C -3.9 °C 1026.6 hPa NE 6.3 km/h 9.3 km/h 60 % 0 mm
22:47 3.1 °C -3.9 °C 1026.6 hPa NNE 6.1 km/h 9.3 km/h 60 % 0 mm
22:52 3.1 °C -3.7 °C 1026.6 hPa NE 6.6 km/h 9.7 km/h 61 % 0 mm
22:57 3 °C -3.8 °C 1026.6 hPa NNE 6.9 km/h 9.3 km/h 61 % 0 mm
23:02 2.9 °C -4.1 °C 1027 hPa NNE 4.2 km/h 11.1 km/h 60 % 0 mm
23:07 2.8 °C -3.9 °C 1026.6 hPa NE 3.1 km/h 5.6 km/h 61 % 0 mm
23:12 2.8 °C -3.7 °C 1026.6 hPa NNE 2.4 km/h 5.6 km/h 62 % 0 mm
23:17 2.8 °C -3.6 °C 1027 hPa NNE 2.1 km/h 7.4 km/h 63 % 0 mm
23:22 2.7 °C -3.7 °C 1027 hPa ENE 2.1 km/h 7.4 km/h 63 % 0 mm
23:27 2.6 °C -3.5 °C 1027 hPa NE 2.6 km/h 5.6 km/h 64 % 0 mm
23:32 2.6 °C -3.4 °C 1027 hPa NE 2.9 km/h 5.6 km/h 65 % 0 mm
23:37 2.5 °C -3.4 °C 1027 hPa Calm   3.2 km/h 65 % 0 mm
23:42 2.4 °C -3.7 °C 1027 hPa Calm   1.6 km/h 64 % 0 mm
23:47 2.4 °C -3.7 °C 1027 hPa NE 0.5 km/h 1.9 km/h 64 % 0 mm
23:52 2.3 °C -3.8 °C 1027 hPa Calm     64 % 0 mm
23:53 2.3 °C -3.8 °C 1027 hPa Calm     64 % 0 mm
23:58 2.2 °C -3.7 °C 1027 hPa Calm     65 % 0 mm
Crab Meadow Weather
Compliments of Weather Underground - 3 mb

Script developed by  Jim McMurry - jmcmurry@mwt.net Adapted for the template by  Wim van der Kuil - Leuven-Template.eu

Weather Terms: Winter Storm Watch - Conditions are favorable for hazardous winter weather conditions including heavy snow, blizzard conditions, or significant accumulations of freezing rain or sleet. These watches are issued by the Weather Service Forecast Office in Upton and are usually issued 12 to 36 hours in advance of the event.